Location: Newark
(23.3970°S, 47.6010°W)
Time: 01:15:09
(UTC+00:00)

Tiros 1 despin weight - Pass Details

Date: 20 February 2020
Orbit: 593 x 642 km, 48.2° (Epoch: 28 March)

Event Time Altitude Azimuth Distance (km) Brightness Sun altitude
Rises 22:03:56 0° 208° (SSW) 2,962 ? -4.6°
Reaches altitude 10° 22:06:59 10° 188° (S) 2,044 ? -5.3°
Maximum altitude 22:10:12 18° 145° (SE) 1,574 ? -6.0°
Drops below altitude 10° 22:13:22 10° 102° (ESE) 2,019 ? -6.7°
Enters shadow 22:14:17 - 94° (E) 2,266 ? -6.9°
Sets 22:16:20 0° 83° (E) 2,912 - -7.4°
